Torax TimeFrame

99 2020-05-30 22:40:06
NameTime LeftWindow Opens
Animated Captain10d 12:582020-05-21 11:40:00
Old World Drake5d 07:252020-05-26 17:13:00
Windstrike The Vile2d 14:362020-05-29 10:02:00
Crolvak, the Fire Master1d 20:522020-05-30 03:46:00
Emperor Neudeus, Controller of the Universe1d 16:032020-05-30 08:35:00
Anvilfist1d 13:582020-05-30 10:40:00
Jade Dragonite1d 08:352020-05-30 16:03:00
Beast of Cards1d 05:302020-05-30 19:08:00
Ormsul the Putrid1d 05:032020-05-30 19:35:00
Gorganus of the Wood1d 03:202020-05-30 21:18:00
Lady Ariella0d 23:302020-05-31 01:08:00
Anguish0d 18:582020-05-31 05:40:00
Viserion, the Necrodragon0d 17:392020-05-31 06:59:00
Mistress of the Sword0d 16:422020-05-31 07:56:00
Shadow0d 11:452020-05-31 12:53:00
Smoot the Yeti0d 11:182020-05-31 13:20:00
Lacuste of the Swarm0d 11:112020-05-31 13:27:00
Zikkir the Dark Archer0d 09:092020-05-31 15:29:00
Balerion, Dragon of Dread0d 07:572020-05-31 16:41:00
Garland, The Lord Keeper0d 05:462020-05-31 18:52:00
Wanhiroeaz the Devourer0d 04:412020-05-31 19:57:00
Threk, King of Lords0d 02:402020-05-31 21:58:00
Vitkros, Hydra of the Deep0d 02:292020-05-31 22:09:00
Numerocure, The Black Messenger of Evil0d 02:012020-05-31 22:37:00
Kro Shuk, Doomslayer0d 02:002020-05-31 22:38:00
Baron Mu, Dark Rider of the Undead0d 00:272020-06-01 01:06:00
Ebliss, Fallen Angel of Despair0d 00:472020-06-01 01:26:00
Tsort0d 01:582020-06-01 02:37:00
Archdevil Yirkon0d 02:222020-06-01 03:01:00
Pinosis0d 04:312020-06-01 05:10:00
Lord Narada0d 04:432020-06-01 05:22:00
Ag Nabak the Abomination0d 04:542020-06-01 05:33:00
Nayark the Mummified Sorcerer0d 05:352020-06-01 06:14:00
Nessam0d 06:432020-06-01 07:22:00
Great Lord Ganeshan0d 07:112020-06-01 07:50:00
Bloodchill the Grizzly0d 08:062020-06-01 08:45:00
Traxodon the Plaguebringer0d 08:382020-06-01 09:17:00
Jorun the Blazing Swordsman0d 08:562020-06-01 09:35:00
Synge, The Red Dragon0d 08:572020-06-01 09:36:00
Detox0d 09:152020-06-01 09:54:00
Keeper of Nature0d 10:012020-06-01 10:40:00
Akkel the Enflamed Warrior0d 10:222020-06-01 11:01:00
Hyrak, Bringer of Nightmares0d 10:292020-06-01 11:08:00
Rancid, Lord of Thugs0d 10:472020-06-01 11:26:00
The Emerald Assassin0d 14:032020-06-01 14:42:00
Tylos, The Lord Master0d 14:482020-06-01 15:27:00
Freezebreed, The Frozen Manipulator0d 14:492020-06-01 15:28:00
Lord Varan0d 15:252020-06-01 16:04:00
Karvaz, Lord of Alsayic0d 15:392020-06-01 16:18:00
Lord Suka0d 18:402020-06-01 19:19:00
Ganja the Stone Golem0d 20:212020-06-01 21:00:00
Jazzmin, Maiden of Vitality0d 23:232020-06-02 00:02:00
Slashbrood, Devourer of the Blackness1d 00:442020-06-02 01:23:00
Dreg nor, Keeper of the Infernal Essence1d 00:532020-06-02 01:32:00
Rotborn, Eater of the Dead1d 00:592020-06-02 01:38:00
Sarcrina the Astral Priestess1d 01:162020-06-02 01:55:00
Terrance, Rebel of Rallis1d 01:172020-06-02 01:56:00
Melt Bane, The Forbidden Demon Dragon1d 03:032020-06-02 03:42:00
Brutalitar, Lord of the Underworld1d 05:222020-06-02 06:01:00
Zertan, The Collector1d 05:432020-06-02 06:22:00
Murderface1d 06:282020-06-02 07:07:00
Nar Zhul, Slayer of All1d 06:512020-06-02 07:30:00
Ancient Magus Tarkin1d 07:272020-06-02 08:06:00
Amalgamated Apparition1d 07:432020-06-02 08:22:00
Sigil, Lich of Woe1d 08:042020-06-02 08:43:00
Q-SEC Commander1d 08:062020-06-02 08:45:00
Hackerphage, Protector of the Gateway1d 08:082020-06-02 08:47:00
Volgan the Living Ironbark1d 10:152020-06-02 10:54:00
Gnorb1d 10:442020-06-02 11:23:00
Esquin, the Kinetic Master1d 11:062020-06-02 11:45:00
Crane1d 11:462020-06-02 12:25:00
Dlanod, the Crazed Chancellor1d 11:522020-06-02 12:31:00
Lord Sibannac1d 14:272020-06-02 15:06:00
Lady Chaos, Queen of the Abyss1d 14:352020-06-02 15:14:00
Murfax, Beast of the Caves1d 17:382020-06-02 18:17:00
Bolkor, the Holy Master1d 19:322020-06-02 20:11:00
Quiver, The Renegade1d 19:572020-06-02 20:36:00
Howldroid, Tormentor of the Pit1d 22:412020-06-02 23:20:00
Nafir, God of Desolation1d 23:122020-06-02 23:51:00
Samatha Dark-Soul2d 00:482020-06-03 01:27:00
Crantos, Defender of Ultimation2d 01:312020-06-03 02:10:00
Sylvanna TorLai2d 07:192020-06-03 07:58:00
Xynak, the Arcane Master2d 10:362020-06-03 11:15:00
Lord Xordam2d 11:292020-06-03 12:08:00
Felroc, Overseer of Hellfire2d 11:572020-06-03 12:36:00
King Ashnar, Lord of the Unliving2d 13:092020-06-03 13:48:00
Straya, the Underworld Ruler2d 15:032020-06-03 15:42:00
Grivvek, Protector of the Brood2d 16:522020-06-03 17:31:00
Skybrine The Inescapable2d 21:092020-06-03 21:48:00
Varsanor, Master of Darkness3d 00:482020-06-04 01:27:00
Dexor, Victor of Veldara3d 06:442020-06-04 07:23:00
Kretok, Descendant of Nature3d 11:482020-06-04 12:27:00
Raiyar, the Shadow Master3d 22:162020-06-04 22:55:00
Gregov, Knight of the Woods4d 00:592020-06-05 01:38:00
Skarthul the Avenged4d 10:202020-06-05 10:59:00
Thanox, Balancer of Chaos5d 10:362020-06-06 11:15:00
Shaik, Servant of Arkron184d 13:192019-11-29 11:19:00
Rook, Hand of Arkron182d 12:132019-12-01 12:25:00
Noxious Slug6d 01:552020-05-25 22:43:00